Погода в Дабане

Россия / Республика Саха (Якутия)     60°07′26″N   119°12′13″E
темп.,
°C
ветер,
м/с
пор.,
м/с
влажн.,
%
обл.,
%
осадки,
мм/ч
давл.,
гПа
погр.,
м
27 февраля, сб
сб2700:00−24з1196100 0.0 102320
03:00−24сз1196100 0.0 102220
06:00−23з1199100 0.0 102339
09:00−22зсз3898100 0.5 1023448
12:00−21зсз5896100 0.7 1023789
15:00−20сз51093100 1.1 10231154
18:00−21зсз51093100 0.3 10251298
21:00−22зсз51184100 0.4 10261047
28 февраля, вс
вс2800:00−25зсз41289100 0.0 1027773
03:00−29з3129594 0.0 1029331
06:00−32з229830 0.0 103134
09:00−31зюз249845 0.0 1033112
12:00−24з5108684 0.0 10331338
15:00−23з588192 0.1 10321497
18:00−25з3888100 0.1 1033530
21:00−29зюз129790 0.1 103419
1 марта, пн
пн100:00−30зюз1210089 0.0 103419
03:00−32юз2210088 0.0 103419
06:00−32юз129882 0.0 103419
09:00−32юз129457 0.0 103419
12:00−25зюз238621 0.0 1032421
15:00−23з348059 0.0 10301195
18:00−26з0189100 0.0 102919
21:00−30юв119281 0.0 102919
2 марта, вт
вт200:00−31вюв119667 0.0 102819
03:00−33вюв119957 0.0 102619
06:00−33в119829 0.0 102619
09:00−33в119626 0.0 102519
12:00−25в238991 0.0 1022312
15:00−23в249095 0.0 1020504
18:00−25св2497100 0.0 1020126
21:00−26св2698100 0.1 1021182
3 марта, ср
ср300:00−29св2298100 0.0 102134
03:00−30св2396100 0.0 102159
06:00−32св229797 0.0 102334
09:00−33ссв229884 0.0 102445
12:00−27ссз238978 0.0 1024349
15:00−25ссз348989 0.0 1023631
18:00−28ссз2694100 0.0 1024170
21:00−34сз1210090 0.0 102719